Location: ??????????
(54.4061°N, 22.6114°E)
Time: 20:51:24
(UTC+00:00)

CENTAUR R/B - Pass Details

Date: 23 October 2019
Orbit: 781 x 1407 km, 63.4° (Epoch: 10 November)

Event Time Altitude Azimuth Distance (km) Brightness Sun altitude
Rises 17:00:34 0° 189° (S) 3,471 5.5 -16.1°
Reaches altitude 10° 17:03:08 10° 180° (S) 2,611 4.7 -16.5°
Maximum altitude 17:08:32 34° 117° (ESE) 1,603 3.1 -17.2°
Enters shadow 17:11:13 25° 77° (ENE) 1,984 3.6 -17.6°
